Probability
0 0 0 0 0 0 0 0 0 0 1 2 1 1 1 0 0 0 0 0 0 0 1 2 3 2 3 3 2 1 1 3 4 2 1 0 0 0 0 0 0 0 0
0 0 0 0 0 0 0 0 0 0 1 2 2 1 2 1 1 0 0 0 0 0 1 2 3 3 3 2 1 1 2 3 3 1 0 0 0 0 0 0 1 1 1
0 0 0 0 0 0 0 0 0 0 0 1 1 2 2 2 1 0 0 0 0 0 1 2 3 3 2 1 0 1 2 2 2 1 0 0 0 0 0 1 2 3 3
0 0 0 0 0 0 0 0 0 0 0 0 0 1 1 1 1 0 0 0 0 0 0 1 2 2 1 0 0 1 1 1 1 0 0 0 0 0 0 1 2 4 5
0 0 0 0 0 0 0 0 0 0 0 0 0 0 0 0 0 0 0 0 0 0 0 0 1 1 0 0 0 0 0 0 0 0 0 0 0 0 0 0 1 3 4
0 0 0 0 0 0 0 0 0 0 0 0 0 0 0 0 0 0 0 0 0 0 0 0 0 0 0 0 0 0 0 0 0 0 0 0 0 0 0 0 0 1 2
0 0 0 0 0 0 0 0 0 0 0 0 0 0 0 0 0 0 0 0 0 0 0 0 0 0 0 0 0 0 0 0 0 0 0 0 0 0 0 0 0 0 1
0 0 0 0 0 0 0 0 0 0 0 0 0 0 0 0 0 0 0 0 0 0 0 0 0 0 0 0 0 0 0 0 0 0 0 0 0 0 0 1 1 1 1
0 0 0 0 0 0 0 0 0 0 0 0 0 0 0 0 0 0 0 0 0 0 0 0 0 0 0 0 0 0 0 0 0 0 0 0 0 0 0 0 1 2 1
0 0 0 0 0 0 0 0 0 0 0 0 0 0 0 0 0 0 0 0 0 0 0 0 0 0 0 0 0 0 0 0 0 0 0 0 0 0 0 0 0 1 1
0 0 0 0 0 0 0 0 0 0 0 0 0 0 0 0 0 0 0 0 0 0 0 0 0 0 0 0 0 0 0 0 0 0 0 0 0 0 0 0 0 0 1
0 0 0 0 0 0 0 0 0 0 0 0 0 0 0 0 0 0 0 0 0 0 0 0 0 0 0 0 0 0 0 0 0 0 0 0 0 0 0 0 1 1 1
0 0 0 0 0 0 0 0 0 0 0 0 0 0 0 0 0 0 0 0 0 0 0 0 0 0 0 0 0 0 0 0 0 0 0 0 0 0 0 0 1 2 2
0 0 0 0 0 0 0 0 0 0 0 0 0 0 0 0 0 0 0 0 0 0 0 0 0 0 0 0 0 0 0 0 0 0 0 0 0 0 0 0 1 1 1
0 0 0 0 0 0 0 0 0 0 0 0 0 0 0 0 0 0 0 0 0 0 0 0 0 0 0 0 0 0 0 0 0 0 0 0 0 0 0 0 0 0 0
0 0 0 0 0 0 0 0 0 0 0 0 0 0 0 0 0 0 0 0 0 0 0 0 0 0 0 0 0 0 0 0 0 0 0 0 0 0 0 0 0 0 0
0 0 0 0 0 0 0 0 0 0 0 0 0 0 0 0 0 0 0 0 0 0 0 0 0 0 0 0 0 0 0 0 0 0 0 0 0 0 0 0 0 0 0
0 0 0 0 0 0 0 0 0 0 0 0 0 0 0 0 0 0 0 0 0 0 0 0 0 0 0 0 0 0 0 0 0 0 0 0 0 0 0 0 0 0 0
0 0 0 0 0 0 0 0 0 0 0 0 0 0 0 0 0 0 0 0 0 0 0 0 0 0 0 0 0 0 0 0 0 0 0 0 0 0 0 0 0 0 0
0 0 0 0 0 0 0 0 0 0 0 0 0 0 0 0 0 0 0 0 0 0 0 0 0 0 0 0 0 0 0 0 0 0 0 0 0 0 0 0 0 0 0
0 0 0 0 0 0 0 0 0 0 0 0 0 0 0 0 0 0 0 0 0 0 0 0 0 0 0 0 0 0 0 0 0 0 0 0 0 0 0 0 0 0 0
0 0 0 0 0 0 0 0 0 0 0 0 0 0 0 0 0 0 0 0 0 0 0 0 0 0 0 0 0 0 0 0 0 0 0 0 0 0 0 0 0 0 0
0 0 0 0 0 0 0 0 0 0 0 1 1 1 0 0 0 0 0 0 0 0 0 0 0 0 0 0 0 0 0 0 0 0 0 0 0 0 0 0 0 0 0
0 0 0 0 0 0 0 0 0 0 1 2 2 1 0 0 0 0 0 0 1 1 0 0 0 0 0 0 0 0 0 0 0 0 0 0 0 0 0 0 0 0 0
0 0 0 0 0 0 0 0 0 0 1 2 2 1 0 0 0 0 0 1 2 2 1 0 0 0 0 0 0 0 0 0 0 0 0 0 0 0 0 0 0 0 0
0 0 0 0 0 0 0 0 0 0 1 1 1 0 0 0 0 0 1 2 3 3 2 1 0 0 0 0 0 0 0 0 0 0 0 0 0 0 0 0 0 0 0
Wind_Speed
3 4 4 3 4 4 4 4 4 6 6 6 6 7 6 6 6 6 5 11 11 10 10 9 9 8 8 8 8 9 9 9 8 7 7 7 7 7 7 6 5 5 4
3 3 4 3 4 4 4 4 5 5 5 5 6 6 6 6 6 6 5 7 10 11 11 11 10 9 9 9 9 9 9 9 9 8 8 8 8 8 7 7 7 6 5
3 3 3 4 3 4 4 4 6 4 4 5 6 6 5 6 6 6 5 4 5 9 11 12 11 11 10 9 10 10 9 9 10 9 9 9 8 8 8 8 8 7 6
4 3 3 3 3 3 3 3 3 4 4 4 5 4 4 4 6 5 5 5 4 4 8 12 12 12 11 10 10 10 10 10 10 10 9 9 9 9 9 9 8 8 7
3 3 3 3 3 3 3 3 4 3 4 4 4 4 4 5 4 5 6 6 6 5 5 7 9 11 12 12 11 11 11 10 10 10 10 10 9 9 9 8 8 8 7
3 3 2 3 3 3 3 3 4 3 3 3 4 4 4 4 4 5 5 5 5 6 6 6 5 7 10 11 11 11 11 11 11 11 11 11 10 9 9 8 8 8 7
2 2 2 3 2 2 3 4 3 4 3 2 2 3 4 4 4 3 4 4 5 5 5 5 5 4 4 9 11 11 11 11 11 11 11 11 10 10 9 8 8 8 7
2 2 2 2 2 2 3 3 2 1 2 0 0 1 2 3 3 4 3 3 4 3 4 5 6 5 4 4 8 11 11 11 10 10 10 10 10 10 10 9 8 8 8
2 2 2 2 2 2 2 2 2 1 0 1 2 2 2 2 2 3 4 3 4 3 3 4 5 5 5 5 4 8 10 10 9 10 10 10 10 10 10 10 9 9 9
2 2 2 2 2 2 2 1 1 0 1 1 1 2 3 3 1 2 2 3 3 3 4 3 4 5 5 4 5 8 9 9 9 9 9 10 9 10 10 10 10 9 9
2 2 2 1 2 2 2 1 1 0 1 1 1 1 1 1 2 1 1 1 2 3 3 3 3 3 4 4 4 7 8 7 8 8 9 9 9 9 10 10 9 9 9
2 2 2 2 1 1 1 1 1 1 0 1 1 1 1 1 1 1 1 1 1 2 3 3 2 3 2 3 5 7 6 6 6 7 7 8 9 9 9 10 9 9 8
2 2 2 2 2 2 1 1 1 1 1 1 1 1 1 2 2 1 1 1 1 1 2 2 3 2 2 2 3 3 5 5 6 6 6 7 7 8 8 9 9 9 8
2 2 2 2 3 2 2 1 1 1 1 1 1 1 1 1 1 1 1 1 0 1 2 3 2 2 2 2 3 2 3 5 5 6 6 6 6 7 7 8 8 8 8
2 2 3 3 3 2 2 2 1 1 1 1 1 1 1 1 1 1 1 2 3 1 1 2 2 3 2 2 3 2 3 6 5 5 5 5 5 5 6 6 7 7 7
3 3 3 3 3 3 2 2 1 1 1 2 1 1 1 1 1 0 1 1 2 2 1 2 2 2 2 2 2 2 3 4 5 5 5 5 5 4 5 5 5 6 6
3 3 3 3 3 3 3 2 1 1 1 1 1 1 1 1 0 0 0 0 1 1 0 1 1 2 2 2 2 2 2 2 3 6 5 5 5 5 5 5 5 5 6
3 3 3 3 2 2 2 2 2 1 1 0 0 1 1 1 0 0 0 0 0 1 1 1 1 1 2 3 3 2 2 2 2 5 5 5 6 6 6 6 6 6 6
4 4 4 3 3 3 2 2 2 1 1 1 0 1 1 0 0 0 0 0 0 0 1 1 1 1 1 2 2 2 2 2 2 3 3 4 5 6 6 6 7 7 7
4 3 3 3 3 3 3 2 2 2 1 1 0 0 1 1 1 1 0 0 0 0 0 1 0 0 1 2 2 2 2 1 1 2 2 2 3 3 4 6 7 7 7
4 3 3 3 3 2 2 2 2 2 2 2 1 1 2 4 5 4 2 1 0 1 0 1 0 1 1 1 2 2 2 2 1 2 2 1 1 2 2 4 6 7 7
4 3 3 3 3 2 3 1 2 2 2 2 2 2 3 3 3 3 4 5 4 1 1 0 1 1 2 2 2 3 3 3 2 2 3 2 1 2 2 3 6 6 6
4 4 4 3 3 3 5 3 2 2 2 1 1 1 1 1 2 2 4 3 2 3 3 2 1 2 3 3 3 3 3 3 3 2 3 2 1 1 2 3 5 5 5
4 4 4 4 3 3 5 4 4 4 2 2 1 1 2 2 2 1 2 2 2 1 0 1 1 3 4 4 3 3 4 3 1 1 3 3 2 2 1 1 4 4 4
4 4 4 3 3 3 4 4 4 3 2 2 2 1 1 2 3 1 2 2 2 2 3 3 4 5 6 6 5 2 2 2 2 0 2 3 3 3 2 1 1 2 2
5 4 4 4 4 3 5 4 5 3 3 3 2 2 2 1 3 3 2 2 1 1 1 3 2 1 0 2 2 2 2 3 3 1 2 3 3 3 2 0 2 2 1
Wind_Direction
72 79 81 77 77 81 87 78 77 76 72 67 63 61 60 58 58 60 64 52 45 45 44 47 51 54 55 57 54 50 48 48 49 50 47 45 44 41 38 31 28 28 31
76 80 87 79 72 70 72 79 78 76 72 69 67 62 55 56 60 59 62 68 58 46 41 45 49 54 58 56 53 50 51 49 47 48 48 49 45 39 35 34 33 34 37
75 77 77 80 76 83 84 78 84 80 78 76 71 62 56 47 53 54 51 47 65 63 47 42 50 54 57 55 53 52 50 48 44 45 48 49 44 40 39 39 36 36 39
77 78 78 82 82 84 89 90 86 87 80 73 68 61 61 56 49 49 53 55 46 48 62 51 48 51 53 53 52 52 50 47 45 45 49 49 47 45 45 43 39 39 43
82 90 79 85 95 93 88 91 87 84 86 82 79 70 62 60 51 47 52 49 51 46 54 69 62 54 51 51 50 49 49 47 44 47 50 49 45 44 44 42 41 42 46
77 87 103 97 96 101 99 101 104 98 88 92 87 80 70 71 61 49 44 47 43 44 44 46 61 68 57 51 48 48 48 47 46 47 49 47 42 42 41 42 46 49 52
88 92 98 94 92 99 106 115 116 116 105 103 117 111 103 80 68 61 46 43 50 42 44 49 49 49 65 64 49 44 43 44 45 47 48 45 41 40 40 41 47 55 58
95 104 113 113 112 113 127 123 134 127 114 99 309 190 141 129 86 65 59 48 46 53 47 46 51 52 43 50 57 44 38 39 42 45 48 45 40 39 39 40 49 57 61
86 90 98 116 126 145 136 138 143 151 122 88 4 330 341 53 98 96 59 57 52 46 51 49 49 51 50 45 48 49 35 32 36 40 42 42 40 40 38 38 48 57 63
102 100 109 120 130 123 137 153 130 89 336 52 85 16 8 22 320 113 107 68 54 46 42 47 45 49 49 48 48 41 34 28 32 36 37 37 38 39 37 40 49 57 62
108 111 116 126 121 126 136 120 106 326 342 347 15 58 69 66 324 341 78 87 91 69 49 41 42 41 42 43 41 46 35 28 31 34 34 34 35 37 38 39 48 54 58
125 117 120 125 119 117 126 121 126 146 341 359 341 357 334 351 15 2 27 73 66 76 69 58 42 43 37 39 46 44 33 28 30 33 32 33 32 33 35 35 39 44 46
140 133 143 138 121 119 109 115 131 121 127 93 15 3 357 359 353 336 341 28 58 103 101 91 56 45 36 34 52 34 48 31 27 30 34 34 32 31 29 30 32 34 34
143 137 133 125 122 121 122 121 116 109 96 96 69 42 7 17 354 337 331 320 301 118 109 77 74 50 35 34 31 318 63 54 36 30 32 36 35 33 29 27 27 27 28
151 146 141 140 134 131 123 122 109 101 91 64 61 75 52 52 352 351 314 306 315 326 73 77 61 54 32 33 10 15 44 60 40 30 28 33 32 30 29 27 23 20 19
168 167 168 157 151 143 136 126 122 78 118 100 54 28 28 37 48 358 311 316 320 324 6 55 50 50 40 28 25 9 44 88 52 30 26 27 24 22 25 24 21 18 20
183 183 183 176 163 157 148 144 154 150 148 134 146 107 70 35 115 118 188 299 323 320 345 36 56 39 38 22 29 8 7 14 64 50 39 36 33 33 30 27 26 25 26
192 196 186 187 176 175 168 158 160 165 142 114 47 74 76 99 61 25 254 245 333 304 292 321 40 26 17 16 6 5 7 15 35 65 54 48 44 43 40 37 36 35 32
193 193 189 189 185 188 184 182 180 184 163 153 68 15 3 28 98 109 229 291 311 339 299 265 351 12 355 3 351 357 18 7 15 83 87 74 59 50 44 42 39 36 32
190 191 192 191 192 193 198 194 192 194 186 164 123 60 8 354 352 336 320 308 186 159 218 244 269 336 354 357 327 330 338 1 350 21 38 60 93 88 65 50 40 33 28
191 188 189 194 195 200 206 209 200 198 195 170 150 112 76 49 34 14 358 349 222 212 207 252 283 325 350 349 331 318 318 316 348 5 334 360 37 33 62 69 46 31 30
190 185 191 192 190 177 117 142 240 201 193 192 180 154 136 129 104 90 59 40 22 356 330 294 314 322 336 341 332 309 320 316 316 21 319 327 11 17 20 44 42 33 29
185 186 191 191 190 152 135 153 197 220 212 213 217 185 146 128 149 145 134 138 91 36 359 332 340 337 334 344 325 313 312 307 324 12 319 304 3 355 13 54 54 35 25
180 186 188 192 186 150 144 158 182 211 205 197 201 198 176 161 142 164 150 134 120 107 56 293 330 349 359 357 330 313 312 302 302 40 338 313 337 327 329 37 77 39 17
181 181 185 186 183 170 152 167 191 195 191 182 169 177 195 170 111 165 187 172 160 140 103 68 33 41 46 31 359 330 333 310 305 28 8 312 323 315 292 263 74 44 10
184 181 179 186 189 184 146 165 200 199 191 177 159 153 108 134 126 173 206 204 221 232 167 149 146 148 108 81 16 335 333 311 316 339 31 320 324 322 296 314 343 326 321